User: anonymous   Login
Location: *
(51.5000°N, 0.1100°W)
Time: 18:54:32
(UTC+00:00)
Language:

Aureole 3 - Orbit

View from above orbital plane
View from above orbital plane
View from above satellite
View from above satellite

Ground track
Ground track

The orbit data is extracted from the following two-line orbital elements,

1 12848U 81094A   24207.18831782  .00006386  00000-0  33801-3 0  9999
2 12848  82.4760 191.4269 0523362 214.6550 141.9495 14.42290778159853
Epoch (UTC): 25 July 2024 04:31:10
Eccentricity: 0.0523362
inclination: 82.4760°
perigee height: 378 km
apogee height: 1124 km
right ascension of ascending node: 191.4269°
argument of perigee: 214.6550°
revolutions per day: 14.42290778
mean anomaly at epoch: 141.9495°
orbit number at epoch: 15985

The dashed part of the orbit path shows where the satellite is in the earth's shadow,  

DLR